SCP
0 0 0 0 0 0 0 0 0 0 0 0 0 0 0 0 0 0 0 0 0 0 0 0 0 0 0 0 0 0 0 0 0 0 0 0 0 0 0 0 0 0 0
0 0 0 0 0 0 0 0 0 0 0 0 0 0 0 0 0 0 0 0 0 0 0 0 0 0 0 0 0 0 0 0 0 0 0 0 0 0 0 0 0 0 0
0 0 0 0 0 0 0 0 0 0 0 0 0 0 0 0 0 0 0 0 0 0 0 0 0 0 0 0 0 0 0 0 0 0 0 0 0 0 0 0 0 0 0
0 0 0 0 0 0 0 0 0 0 0 0 0 0 0 0 0 0 0 0 0 0 0 0 0 0 0 0 0 0 0 0 0 0 0 0 0 0 0 0 0 0 0
0 0 0 0 0 0 0 0 0 0 0 0 0 0 0 0 0 0 0 0 0 0 0 0 0 0 0 0 0 0 0 0 0 0 0 0 0 0 0 0 0 0 0
0 0 0 0 0 0 0 0 0 0 0 0 0 0 0 0 0 0 0 0 0 0 0 0 0 0 0 0 0 0 0 0 0 0 0 0 0 0 0 0 0 0 0
0 0 0 0 0 0 0 0 0 0 0 0 0 0 0 0 0 0 0 0 0 0 0 0 0 0 0 0 0 0 0 0 0 0 0 0 0 0 0 0 0 0 0
0 0 0 0 0 0 0 0 0 0 0 0 0 0 0 0 0 0 0 0 0 0 0 0 0 0 0 0 0 0 0 0 0 0 0 0 0 0 0 0 0 0 0
0 0 0 0 0 0 0 0 0 0 0 0 0 0 0 0 0 0 0 0 0 0 0 0 0 0 0 0 0 0 0 0 0 0 0 0 0 0 0 0 0 0 0
0 0 0 0 0 0 0 0 0 0 0 0 0 0 0 0 0 0 0 0 0 0 0 0 0 0 0 0 0 0 0 0 0 0 0 0 0 0 0 0 0 0 0
0 0 0 0 0 0 0 0 0 0 0 0 0 0 0 0 0 0 0 0 0 0 0 0 0 0 0 0 0 0 0 0 0 0 0 0 0 0 0 0 0 0 0
0 0 0 0 0 0 0 0 0 0 0 0 0 0 0 0 0 0 0 0 0 0 0 0 0 0 0 0 0 0 0 0 0 0 0 0 0 0 0 0 0 0 0
0 0 0 0 0 0 0 0 0 0 0 0 0 0 0 0 0 0 0 0 0 0 0 0 0 0 0 0 0 0 0 0 0 0 0 0 0 0 0 0 0 0 0
0 0 0 0 0 0 0 0 0 0 0 0 0 0 0 0 0 0 0 0 0 0 0 0 0 0 0 0 0 0 0 0 0 0 0 0 0 0 0 0 0 0 0
0 0 0 0 0 0 0 0 0 0 0 0 1 1 0 0 0 0 0 0 0 0 0 0 0 0 0 0 0 0 0 0 0 0 0 0 0 0 0 0 0 0 0
0 0 0 0 0 0 0 0 0 0 0 0 0 0 0 0 0 0 0 0 0 0 0 0 0 0 0 0 0 0 0 0 0 0 0 0 0 0 0 0 0 0 0
0 0 0 0 0 0 0 0 0 0 0 0 0 0 0 0 0 0 0 0 0 0 0 0 0 0 0 0 0 0 0 0 0 0 0 0 0 0 0 0 0 0 0
0 0 0 0 0 0 0 0 0 0 0 0 0 0 0 0 0 0 0 0 0 0 0 0 0 0 0 0 0 0 0 0 0 0 0 0 0 0 0 0 0 0 0
0 1 1 1 1 0 0 0 0 0 0 0 0 0 0 0 0 0 0 0 0 0 0 0 0 0 0 0 0 0 0 0 0 0 0 0 0 0 0 0 0 0 0
0 0 1 1 1 1 0 0 0 1 1 1 0 0 0 0 0 0 0 0 0 0 0 0 0 0 0 0 0 0 0 0 0 0 0 0 0 0 0 0 0 0 0
0 0 0 1 1 1 1 1 1 1 1 1 0 0 0 0 0 0 0 0 0 0 0 0 0 0 0 0 0 0 0 0 0 0 0 0 0 0 0 0 0 0 0
0 0 0 0 0 1 1 1 1 0 0 0 0 0 0 0 0 0 0 0 0 0 0 0 0 0 0 0 0 0 0 0 0 0 0 0 0 0 0 0 0 0 0
0 0 0 0 0 0 1 1 1 0 0 0 0 0 0 0 0 0 0 0 0 1 1 1 0 0 0 0 0 0 0 0 0 0 0 0 0 0 0 0 0 0 0
0 0 0 0 0 0 0 0 0 1 0 0 0 0 0 0 0 0 0 0 0 1 1 1 0 0 0 0 0 0 0 0 0 0 0 0 0 0 0 0 0 0 0
0 0 0 0 0 0 0 0 1 1 1 0 0 0 0 0 0 0 0 0 0 0 0 0 0 0 0 0 0 1 0 0 0 0 0 0 0 0 0 0 0 0 0
0 0 0 0 0 0 0 0 1 1 1 0 0 0 0 0 0 0 0 0 0 0 0 0 0 0 0 0 0 0 0 0 0 0 0 1 1 1 0 0 0 0 0
Wind_Speed
5 4 5 5 5 4 5 5 4 3 3 2 2 1 1 1 1 1 1 1 1 1 1 1 1 1 1 1 1 1 1 1 1 2 2 2 2 1 1 1 1 1 2
4 5 5 5 5 6 5 5 5 4 4 3 2 2 2 1 1 1 0 1 1 2 2 2 1 1 1 1 1 1 1 0 0 1 1 2 2 2 1 1 1 1 1
8 8 7 6 6 6 7 6 5 5 4 3 2 2 2 1 1 1 1 1 1 2 2 2 2 1 1 1 1 1 2 1 0 1 2 1 1 2 2 1 1 1 1
8 8 8 8 8 8 6 5 5 5 4 4 3 3 3 2 2 1 1 1 1 1 1 2 2 1 1 1 2 2 1 2 1 0 1 1 2 1 1 2 1 2 2
9 10 10 10 8 7 6 5 5 5 4 4 5 4 2 2 1 0 1 1 1 1 1 2 2 1 1 1 1 1 2 2 2 1 1 1 0 1 1 2 2 2 2
10 9 8 7 6 6 6 5 5 5 5 5 4 4 4 3 2 1 1 1 1 1 1 1 1 1 1 2 2 2 2 2 2 1 1 1 1 2 2 2 2 2 2
9 9 8 8 8 8 7 6 6 6 5 5 5 5 5 4 4 3 3 2 1 1 2 1 1 1 2 2 2 1 1 2 2 2 1 2 2 1 2 2 1 2 2
9 9 10 10 9 9 8 7 7 6 6 6 5 5 5 4 3 3 3 3 2 2 2 1 2 2 2 2 1 1 1 1 1 2 1 1 2 2 2 2 1 1 1
8 9 9 9 9 9 9 9 8 7 6 6 5 4 5 4 4 3 3 3 2 2 2 2 2 2 2 2 1 1 1 1 1 1 2 1 1 2 2 2 2 2 2
7 7 7 8 8 8 8 8 8 8 6 6 6 5 5 5 4 3 4 3 3 2 2 2 2 2 2 1 1 1 1 1 2 1 1 2 2 2 2 2 2 2 2
7 7 7 7 7 6 7 7 7 7 6 6 6 5 5 5 4 4 4 4 3 3 2 2 2 2 2 2 1 2 1 2 2 2 2 3 2 2 1 1 2 2 2
5 5 6 6 6 7 6 7 7 7 7 6 6 6 5 4 4 4 4 4 3 3 3 2 2 2 2 2 2 2 2 2 2 3 2 3 2 2 1 1 2 2 2
4 3 4 5 6 6 6 7 7 7 6 6 6 6 5 5 5 5 4 4 3 3 2 2 2 2 2 2 2 2 2 2 3 2 2 2 1 2 1 1 1 1 1
4 4 4 5 5 6 6 6 6 6 6 6 6 6 6 6 5 4 4 3 3 3 3 2 3 2 2 2 2 2 2 2 2 2 2 2 2 2 2 2 2 1 1
4 5 5 5 5 4 5 5 5 5 5 5 5 6 5 4 4 4 4 3 3 3 3 3 2 2 2 2 2 2 2 2 2 1 1 2 2 2 2 2 2 2 2
5 5 5 5 6 6 5 5 4 4 4 5 5 4 4 4 4 4 4 4 3 3 3 3 3 2 2 2 3 2 2 2 2 2 2 2 1 2 2 2 3 4 3
5 6 6 6 6 6 6 5 5 4 4 4 4 4 4 4 4 4 4 4 4 3 3 2 2 3 2 2 3 3 2 2 2 2 2 2 1 1 1 2 2 3 4
4 4 4 4 4 4 4 4 4 4 5 4 4 3 3 3 3 3 4 4 3 3 3 3 3 2 3 3 3 3 2 2 2 2 2 2 2 1 1 2 1 2 3
3 3 4 4 3 4 4 5 4 4 4 4 4 4 4 4 3 3 3 3 2 2 2 2 2 2 3 3 3 3 1 1 2 2 2 2 2 2 2 2 2 3 3
1 2 2 3 3 3 4 5 4 4 5 5 4 4 4 4 4 4 3 2 2 3 2 2 2 3 3 2 3 3 1 2 2 2 2 2 3 3 2 3 3 3 4
0 1 3 3 3 3 5 5 5 5 5 4 4 4 3 3 4 3 3 2 2 2 2 2 1 2 3 3 2 3 2 2 2 2 2 2 3 3 3 3 3 5 3
2 2 2 2 2 3 5 5 5 5 3 3 4 4 4 3 3 3 3 2 3 2 2 2 1 1 2 2 2 3 4 3 3 3 3 3 3 3 3 3 3 3 1
2 1 1 1 2 3 5 6 5 4 4 4 4 4 4 3 3 4 4 3 3 2 2 2 2 2 2 2 3 3 4 4 3 3 3 3 3 2 2 3 3 2 1
1 1 1 1 2 3 4 5 4 5 5 5 4 3 4 3 2 3 3 3 3 3 3 3 3 3 2 2 2 2 2 3 3 3 3 2 2 2 2 1 1 2 1
1 0 1 3 4 3 3 4 4 5 5 4 4 4 4 4 3 3 3 4 4 5 5 4 4 4 4 4 5 3 3 3 3 1 1 0 0 1 1 1 1 1 1
1 1 2 3 3 3 3 3 4 5 6 5 4 4 3 3 3 3 1 1 2 4 6 6 5 4 5 4 4 5 5 4 2 2 1 1 1 2 2 2 2 2 2
Wind_Direction
207 183 179 172 168 170 169 169 167 169 148 141 149 150 195 248 268 243 219 200 184 161 151 145 118 107 115 115 102 91 75 56 72 65 18 358 3 6 344 316 306 298 278
190 187 180 174 177 181 180 178 182 180 176 173 166 163 160 191 220 265 265 223 199 191 186 172 171 163 134 104 106 115 115 128 96 103 71 347 340 348 4 2 342 309 295
199 195 187 187 183 187 188 190 189 186 184 170 129 102 74 44 27 336 295 269 220 209 190 177 176 172 166 196 215 178 167 189 239 145 146 154 261 311 335 348 360 340 317
200 193 188 188 191 195 189 188 184 182 181 166 159 161 169 192 223 225 242 283 256 231 202 184 184 189 189 211 228 193 181 170 215 223 183 191 184 202 307 331 339 321 315
193 192 194 195 194 190 184 183 177 181 180 173 175 172 185 206 220 221 259 293 307 286 240 198 184 197 211 222 231 211 192 184 193 194 187 171 151 197 205 284 314 334 318
194 195 193 189 191 185 182 178 176 188 184 180 180 178 187 196 193 212 231 252 275 284 271 218 197 206 219 228 230 219 201 198 197 192 190 190 191 203 194 236 283 303 309
192 193 187 189 191 187 186 180 178 193 189 184 189 192 195 193 199 206 214 223 240 248 255 226 205 213 228 233 220 206 219 206 199 205 212 217 225 196 181 194 254 284 298
194 197 195 194 193 191 187 183 185 194 191 192 199 199 195 195 203 203 208 216 224 235 241 218 214 217 225 234 210 208 226 207 208 219 215 226 236 209 196 191 195 277 294
198 198 195 193 191 190 190 188 187 193 194 196 197 200 201 201 206 208 208 220 225 224 224 225 227 228 227 226 198 205 229 206 212 222 220 228 241 225 223 215 207 206 268
201 197 192 193 193 191 187 184 186 193 197 194 200 209 209 209 206 201 213 218 221 224 218 227 231 228 227 218 195 217 230 208 229 228 235 242 243 236 226 222 224 219 221
203 197 193 190 186 179 179 183 190 191 194 199 202 209 206 203 201 207 215 214 216 219 227 227 224 226 228 218 205 233 237 230 253 257 248 259 253 242 236 217 210 210 193
203 194 186 180 178 183 184 188 192 195 203 199 197 206 205 198 201 212 219 212 213 219 221 218 217 228 232 217 213 234 243 240 251 258 258 269 266 258 249 222 218 218 207
185 171 168 179 185 189 189 193 196 200 198 190 193 202 204 201 207 213 213 207 207 209 206 198 216 231 235 226 221 221 232 241 248 249 250 261 255 266 266 242 223 218 204
175 171 178 188 190 190 191 195 203 198 189 186 192 201 206 204 206 204 201 202 199 202 203 206 221 231 233 227 222 224 236 247 250 245 241 242 234 242 238 232 224 206 181
174 179 185 186 183 184 188 189 193 191 185 182 194 205 203 196 193 193 197 199 201 212 205 202 221 231 229 235 230 227 228 232 246 251 247 240 240 236 224 211 202 190 184
186 184 182 177 180 185 187 183 185 182 171 181 198 198 189 190 193 197 193 191 199 204 196 203 211 228 245 244 216 199 215 216 230 245 261 253 253 266 234 219 204 189 186
192 186 186 185 187 187 178 181 184 168 169 186 193 187 184 190 197 197 190 197 203 199 196 208 207 227 243 216 199 189 193 205 225 230 249 270 276 241 252 246 232 221 212
206 199 189 185 185 177 171 170 159 164 175 183 187 184 182 188 187 188 200 204 200 193 198 212 217 224 238 207 195 191 200 221 240 236 227 232 265 263 236 238 257 257 246
207 199 189 180 165 164 163 149 152 160 169 184 192 189 184 184 186 196 201 193 182 195 199 206 214 223 249 220 205 192 208 246 265 256 238 227 248 264 227 220 250 274 278
203 171 151 135 140 162 147 147 166 172 188 198 199 191 186 186 190 193 188 172 170 188 192 209 219 221 245 243 215 195 207 246 267 273 264 250 250 260 236 229 237 258 270
108 136 132 137 161 158 148 162 175 194 203 190 177 175 180 186 182 171 166 157 165 174 192 204 232 245 255 262 231 197 202 224 248 264 271 272 259 249 248 235 239 250 256
41 80 123 148 154 153 155 173 194 203 178 163 164 170 174 180 174 161 164 162 166 178 203 198 239 268 271 262 250 220 216 219 225 249 263 269 270 257 259 248 262 255 205
32 51 133 144 151 169 172 184 202 180 162 163 174 174 167 171 169 169 173 172 177 187 208 217 238 260 266 260 251 240 230 224 225 248 264 281 288 274 259 260 256 223 204
13 27 95 152 185 193 198 198 186 171 164 172 185 176 165 167 174 185 183 184 193 197 206 220 238 251 256 249 247 251 247 241 241 255 274 282 288 277 287 287 258 233 219
327 330 211 211 218 212 208 196 174 165 169 178 188 186 179 180 185 196 198 197 206 200 202 215 220 226 243 244 233 224 234 236 238 239 283 325 324 299 300 292 290 270 250
304 275 253 236 228 214 217 205 176 167 170 182 190 190 186 186 186 187 214 272 235 221 218 221 219 231 233 239 233 234 236 234 202 163 226 256 254 260 266 269 274 269 259